CYGNUS NG-18 (54232 NORAD) Tracking and Keplerian Element Data

This shows tracking and keplerian element data for the satellite.

Feedback or suggestion? Click here.




ElementValue
Catalog54232
NameCYGNUS NG-18
Epoch Orbit37779
Epoch Day13.45358267
Epoch Year2023
RAAN14.985
Inclination51.6444
Eccentricity0.0004589
Argument of Perigee262.0511
Mean Anonmoly194.108
Mean Motion15.50172483
Decay Rate0.00014835
L11 54232U 22149A 23013.45358267 .00014835 00000+0 26576-3 0 9992
L22 54232 51.6444 14.9850 0004589 262.0511 194.1080 15.50172483377794



Live tracking and technical data element details for CYGNUS NG-18 (NORAD 54232). CYGNUS NG-18 can be tracked NOW for your location showing map with azimuth and elevation plus other details from your city location.







IsCatalogInMostPopularTable: catalog: 54232, numindb: 11
Update: records affected: 1



GetName: 54232 CYGNUS NG-18

Hit Count: updated at: Fri, 27 Jan 2023 21:53:22 GMT